Location: Ellerstadt
(49.4644°N, 8.2615°E)
Time: 22:44:07
(UTC+00:00)

IRIDIUM 100 - Pass Details

Date: 02 October 2021
Orbit: 776 x 779 km, 86.4° (Epoch: 15 October)

Event Time Altitude Azimuth Distance (km) Brightness Sun altitude
Exits shadow 01:56:39 12° 335° (NNW) 2,233 ? -33.0°
Drops below altitude 10° 01:57:02 10° 339° (NNW) 2,340 ? -32.9°
Sets 01:59:56 0° 354° (N) 3,272 ? -32.6°
